STARLINK-3104 (49150 NORAD) Tracking and Keplerian Element Data

This shows tracking and keplerian element data for the satellite.

Feedback or suggestion? Click here.




ElementValue
Catalog49150
NameSTARLINK-3104
Epoch Orbit817
Epoch Day300.83334491
Epoch Year2021
RAAN3.9949
Inclination70.0002
Eccentricity0.0003765
Argument of Perigee293.4634
Mean Anonmoly58.1461
Mean Motion15.69764965
Decay Rate-0.00031131
L11 49150U 21082W 21300.83334491 -.00031131 00000-0 -25977-3 0 9997
L22 49150 70.0002 3.9949 0003765 293.4634 58.1461 15.69764965 8175

Live tracking and technical data element details for STARLINK-3104 (NORAD 49150). STARLINK-3104 can be tracked NOW for your location showing map with azimuth and elevation plus other details from your city location.

Track the satellite on the map from your city or location and see movement details for azimuth, elevation, latitude, longitude, range, height, and movement on the map or in text.







IsCatalogInMostPopularTable: catalog: 49150, numindb: 6
Update: records affected: 1



GetName: 49150 STARLINK-3104

Hit Count: updated at: Thu, 28 Oct 2021 12:21:12 GMT